Regional Weather Roundup
Issued by NWS Charleston, WV

Home | Current Version | Previous Version | Graphics & Text | Print | Product List | Glossary On
Versions: 1 2 3 4 5 6 7 8 9 10 11 12 13 14 15 16 17 18 19 20 21 22 23 24 25 26 27 28 29 30 31 32 33 34 35 36 37 38 39 40 41 42 43 44 45 46 47 48 49 50
000
ASUS41 KRLX 200910
RWRRLX
West Virginia Regional Weather Roundup
National Weather Service Charleston WV
500 AM EDT MON APR 20 2015

Note: "fair" indicates few or no clouds below 12,000 feet with no
significant weather and/or obstructions to visibility.

WVZ003-201000-
Northern Panhandle of West Virginia

CITY           SKY/WX    TMP DP  RH WIND       PRES   REMARKS
WHEELING       NOT AVBL
$$

WVZ009-201000-
Northwest West Virginia

CITY           SKY/WX    TMP DP  RH WIND       PRES   REMARKS
PARKERSBURG    MOCLDY    60  57  89 SW8       29.56R
$$

WVZ006-201000-
Western West Virginia

CITY           SKY/WX    TMP DP  RH WIND       PRES   REMARKS
HUNTINGTON     MOCLDY    60  58  92 S9        29.56S
$$

WVZ015-201000-
West Central West Virginia

CITY           SKY/WX    TMP DP  RH WIND       PRES   REMARKS
CHARLESTON     CLOUDY    63  54  72 S10       29.59S
$$

WVZ022-031-201000-
North Central West Virginia

CITY           SKY/WX    TMP DP  RH WIND       PRES   REMARKS
CLARKSBURG     CLOUDY    59  56  89 S10       29.57R
MORGANTOWN     CLOUDY    57  48  72 S7        29.58R
$$

WVZ025-035-042-045-201000-
Southern West Virginia

CITY           SKY/WX    TMP DP  RH WIND       PRES   REMARKS
BECKLEY        MOCLDY    55  51  86 VRB5      29.68R
LOGAN          CLOUDY    59  55  88 SE9       29.60S
BLUEFIELD      CLEAR     56  50  80 SW8       29.70S
LEWISBURG      FOG       51  49  93 CALM      29.69R VSB 1/2
$$

WVZ047-201000-
Northern Mountains of West Virginia

CITY           SKY/WX    TMP DP  RH WIND       PRES   REMARKS
ELKINS         PTCLDY    53  50  89 SE3       29.63S
$$

WVZ052-201000-
Eastern Panhandle of West Virginia

CITY           SKY/WX    TMP DP  RH WIND       PRES   REMARKS
MARTINSBURG    CLOUDY    51  48  89 N7        29.67F
PETERSBURG     CLOUDY    47  43  85 CALM      29.69F
$$



USA.gov is the U.S. government's official web portal to all federal, state and local government web resources and services.